SCP
0 0 0 0 0 0 0 0 0 0 0 0 0 0 1 1 1 2 2 4 6 6 5 5 6 7 8 9 8 7 7 6 8 10 10 8 7 6 5 4 4 3 3 3
0 0 0 0 0 0 0 0 0 0 0 0 0 1 2 2 3 4 4 5 6 7 6 6 6 8 11 11 10 9 8 8 9 11 11 9 8 6 5 4 4 3 3 3
0 0 0 0 0 0 0 0 0 0 0 0 0 1 2 3 5 6 7 7 7 7 7 8 8 9 11 11 10 9 9 9 10 11 11 10 9 8 6 4 3 2 2 2
0 0 0 0 0 0 0 0 0 0 0 0 0 1 2 3 4 6 7 7 7 8 9 9 10 10 10 9 9 9 9 10 10 10 11 12 12 10 7 4 1 1 1 1
0 0 0 0 0 0 0 0 0 0 0 0 0 0 1 2 3 5 5 6 7 8 10 11 12 11 10 10 9 9 9 10 10 11 13 15 14 11 6 3 1 0 0 0
0 0 0 0 0 0 0 0 0 0 0 0 0 0 1 2 2 4 5 6 8 10 12 13 13 12 11 9 8 9 10 11 11 12 14 15 13 9 5 2 1 0 0 0
0 0 0 0 0 0 0 0 0 0 0 0 0 0 1 2 2 4 5 8 12 15 17 16 14 12 9 7 7 9 10 10 9 9 10 9 7 5 3 1 0 0 0 0
0 0 0 0 0 0 0 0 0 0 0 0 0 1 1 2 3 4 6 10 15 18 18 15 11 8 5 5 6 7 7 6 5 4 4 3 2 1 1 0 0 0 0 0
0 0 0 0 0 0 0 0 0 0 0 0 1 1 2 2 3 4 6 8 12 13 13 10 6 3 2 2 2 3 3 2 1 1 0 0 0 0 0 0 0 0 0 0
0 0 0 0 0 0 0 0 0 0 0 0 1 1 2 2 3 4 4 5 6 6 5 3 2 1 0 0 0 0 0 0 0 0 0 0 0 0 0 0 0 0 0 0
0 0 0 0 0 0 0 0 0 0 0 0 0 1 2 2 3 3 2 2 2 2 1 1 0 0 0 0 0 0 0 0 0 0 0 0 0 0 0 0 0 0 0 0
0 0 0 0 0 0 0 0 0 0 0 0 0 1 2 2 2 1 1 1 0 0 0 0 0 0 0 0 0 0 0 0 0 0 0 0 0 0 0 0 0 0 0 0
0 0 0 0 0 0 0 0 0 0 0 0 0 1 1 1 1 1 0 0 0 0 0 0 0 0 0 0 0 0 0 0 0 0 0 0 0 0 0 0 0 0 0 0
0 0 0 0 0 0 0 0 0 0 0 1 1 2 2 1 1 0 0 0 0 0 0 0 0 0 0 0 0 0 0 0 0 0 0 0 0 0 0 0 0 0 0 0
0 0 0 0 0 0 0 0 1 1 1 1 2 3 2 1 0 0 0 0 0 0 0 0 0 0 0 0 0 0 0 0 0 0 0 0 0 0 0 0 0 0 0 0
0 0 0 0 0 0 0 1 1 1 1 1 2 2 1 1 0 0 0 0 0 0 0 0 0 0 0 0 0 0 0 0 0 0 0 0 0 0 0 0 0 0 0 0
0 0 0 0 0 0 0 0 0 0 1 1 1 1 1 1 0 0 0 0 0 0 0 0 0 0 0 0 0 0 0 0 0 0 0 0 0 0 0 0 0 0 0 0
0 0 0 0 0 0 0 0 0 0 0 0 0 1 1 0 0 0 0 0 0 0 0 0 0 0 0 0 0 0 0 0 0 0 0 0 0 0 0 0 0 0 0 0
0 0 0 0 0 0 0 0 0 0 0 0 0 0 0 0 0 0 0 0 0 0 0 0 0 0 0 0 0 0 0 0 0 0 0 0 0 0 0 0 0 0 0 0
0 0 0 0 0 0 0 0 0 0 0 0 0 0 0 0 0 0 0 0 0 0 0 0 0 0 0 0 0 0 0 0 0 0 0 0 0 0 0 0 0 0 0 0
0 0 0 0 0 0 0 0 0 0 0 0 0 0 0 0 0 0 0 0 0 0 0 0 0 0 0 0 0 0 0 0 0 0 0 0 0 0 0 0 0 0 0 0
0 0 0 0 0 0 0 0 0 0 0 0 0 0 0 0 0 0 0 0 0 0 0 0 0 0 0 0 0 0 0 0 0 0 0 0 0 0 0 0 0 0 0 0
0 0 0 0 0 0 0 0 0 0 0 0 0 0 0 0 0 0 0 0 0 0 0 0 0 0 0 0 0 0 0 0 0 0 0 0 0 0 0 0 0 0 0 0
0 0 0 0 0 0 0 0 0 0 0 0 0 0 0 0 0 0 0 0 0 0 0 0 0 0 0 0 0 0 0 0 0 0 0 0 0 0 0 0 0 0 0 0
0 0 0 0 0 0 0 0 0 0 0 0 0 0 0 0 0 0 0 0 0 0 0 0 0 0 0 0 0 0 0 0 0 0 0 0 0 0 0 0 0 0 0 0
0 0 0 0 0 0 0 0 0 0 0 0 0 0 0 0 0 0 0 0 0 0 0 0 0 0 0 0 0 0 0 0 0 0 0 0 0 0 0 0 0 0 0 0
Wind_Speed
3 3 4 6 6 6 4 5 8 10 8 5 11 15 14 7 4 5 7 12 14 13 11 10 9 9 8 7 7 7 9 9 9 7 6 6 5 4 4 4 5 6 6 6
2 5 9 7 6 6 6 8 10 11 9 6 10 14 8 2 4 6 9 11 13 11 9 8 7 7 7 7 9 9 8 8 8 7 5 4 6 5 5 5 6 6 6 6
6 8 8 7 7 8 9 8 10 10 10 7 2 5 3 4 8 9 8 8 9 11 12 10 9 7 7 7 7 7 8 7 7 8 8 7 6 5 4 5 5 6 7 7
7 9 7 8 10 9 10 10 9 7 3 5 2 2 3 4 9 10 11 10 8 7 6 6 7 6 5 4 4 5 6 7 7 8 10 11 7 6 5 5 5 7 7 8
7 6 8 10 12 9 9 8 5 3 1 3 3 2 5 3 6 8 10 11 10 9 8 8 7 6 5 4 5 4 5 6 7 7 9 9 8 7 7 7 9 8 7 7
10 7 7 11 11 9 7 2 3 4 5 2 4 2 3 3 4 9 10 11 11 10 11 11 10 10 9 9 8 7 8 8 8 8 8 10 12 11 10 9 8 7 6 6
7 9 7 6 5 4 2 4 4 5 4 5 4 3 2 7 10 13 13 12 11 11 10 11 12 12 11 12 11 10 11 11 10 11 10 10 11 11 11 9 8 7 6 5
4 7 5 5 7 5 3 8 7 4 3 4 3 3 5 11 14 15 14 12 11 11 10 11 11 11 11 12 12 13 13 13 12 13 12 11 11 8 8 9 8 7 6 5
3 6 6 4 5 7 3 4 8 6 1 1 1 5 7 10 12 13 13 12 11 10 10 11 12 12 12 13 13 13 14 14 14 14 14 12 11 11 10 9 8 7 6 6
2 4 6 3 2 1 5 4 5 5 3 2 2 3 5 11 11 12 12 11 10 10 10 11 11 12 12 13 13 14 15 15 14 13 12 11 11 11 10 9 9 8 7 6
2 2 6 5 4 1 3 4 3 3 4 4 2 2 2 10 13 13 12 11 10 10 10 10 10 11 12 12 13 13 14 14 13 13 12 12 11 10 9 9 8 7 7 6
4 4 2 2 2 5 7 3 3 3 2 2 3 2 7 13 13 13 13 11 10 10 10 10 11 11 11 12 12 12 12 12 12 11 11 11 10 10 10 9 8 7 7 7
4 5 4 7 8 9 7 5 2 3 3 2 3 4 7 12 12 11 12 11 10 10 10 10 10 11 11 11 11 12 11 11 11 11 11 11 10 9 9 8 7 7 8 8
5 5 4 3 1 2 5 8 7 5 4 2 3 7 8 10 11 10 11 10 10 10 10 10 10 10 11 11 11 11 11 10 10 10 10 10 9 8 8 8 8 8 8 8
6 5 3 2 3 6 9 10 10 8 4 4 6 8 8 8 10 10 10 10 11 10 10 10 11 10 10 10 10 10 10 9 9 10 10 9 8 7 7 7 7 7 7 8
5 4 3 3 8 11 12 12 9 8 7 9 11 8 7 8 8 8 8 9 10 10 10 10 11 10 10 9 8 9 8 8 8 8 8 7 7 7 6 6 6 6 6 5
3 3 3 2 4 7 9 7 6 6 5 4 6 5 8 8 8 7 8 9 10 10 10 10 9 8 7 7 7 7 7 7 7 7 6 6 6 5 5 5 5 5 4 3
4 3 3 3 5 6 1 0 6 9 8 9 11 9 8 10 9 8 6 8 9 9 9 8 7 7 6 6 6 6 6 6 6 5 5 5 5 5 4 4 4 3 2 2
4 5 4 4 4 4 1 0 2 4 5 5 10 11 11 12 10 8 6 7 8 8 8 7 6 6 6 6 5 6 6 5 5 5 5 5 5 5 4 4 2 1 1 1
7 6 5 4 5 2 2 4 3 8 4 2 8 11 11 6 5 4 5 8 9 8 7 6 6 6 6 5 5 6 5 5 5 5 4 4 4 4 3 2 1 0 0 1
6 6 5 4 4 1 3 5 2 3 4 3 6 7 6 3 5 8 9 8 8 8 7 6 6 5 4 4 5 6 5 4 3 4 4 3 3 3 2 1 0 1 1 2
4 3 3 3 3 3 5 3 3 4 4 6 6 6 9 11 11 10 9 8 8 7 6 6 5 5 4 4 5 5 3 2 3 3 3 2 1 1 1 1 1 2 2 3
3 5 4 4 4 4 2 5 5 6 7 5 6 9 12 11 10 9 8 7 6 6 5 4 5 5 3 3 4 4 2 2 3 2 1 1 1 0 1 1 1 2 3 3
1 4 6 5 3 3 5 5 5 6 7 8 10 10 10 10 9 9 8 6 6 5 5 4 5 4 2 2 3 3 2 2 3 1 0 1 1 1 1 0 1 2 2 2
1 4 5 5 4 5 3 4 6 8 10 11 10 9 9 11 10 8 7 6 5 4 4 4 5 4 3 2 2 2 2 3 2 1 1 1 2 1 0 1 1 2 2 3
1 5 7 6 8 6 5 5 8 10 10 11 11 9 9 9 8 7 6 5 5 5 4 4 4 3 3 3 2 2 2 3 2 1 2 1 1 1 1 2 3 4 2 3
Wind_Direction
230 123 219 231 209 209 245 281 285 278 277 265 251 250 252 234 202 207 181 166 163 174 172 169 166 168 170 169 176 191 178 168 160 155 148 138 127 116 98 87 89 94 97 100
2 243 232 236 254 258 267 277 280 289 284 275 254 247 246 178 166 160 153 153 153 153 150 153 150 158 162 176 180 182 179 174 168 159 141 126 121 105 95 86 74 74 84 88
208 240 229 235 254 258 262 245 255 267 301 318 250 268 255 76 82 78 84 103 123 141 148 152 154 157 149 163 173 180 173 165 156 142 125 117 104 98 94 86 75 61 70 77
242 247 239 231 239 229 252 245 243 256 303 305 32 254 277 112 80 72 71 73 79 86 100 115 121 124 131 150 145 155 155 147 144 143 145 145 142 133 115 106 92 74 66 70
243 232 219 230 237 222 235 247 240 246 229 322 352 126 284 72 93 88 75 69 66 65 67 69 74 89 85 87 100 114 109 115 119 128 133 129 118 109 108 102 95 83 70 67
248 253 216 222 237 228 234 289 356 47 71 353 267 141 302 6 123 110 85 70 59 58 56 56 53 55 55 58 68 75 89 93 100 103 107 118 120 120 118 110 102 88 77 68
282 273 247 227 238 266 156 88 31 8 28 250 262 118 59 50 78 97 92 77 64 58 54 52 50 50 51 55 62 70 80 79 85 92 92 98 105 109 110 109 105 101 90 79
252 280 257 213 193 197 182 140 155 180 204 284 352 103 92 87 85 86 84 80 70 63 58 56 53 53 54 56 61 68 73 73 75 82 84 85 89 93 95 95 99 97 95 90
237 264 279 237 199 164 160 175 171 143 173 292 277 119 122 110 101 96 90 83 74 67 64 62 58 57 56 57 59 67 74 74 72 76 79 79 83 88 93 93 92 92 92 94
203 284 298 281 54 77 149 147 92 112 154 242 265 164 175 154 130 112 100 91 84 76 71 69 66 64 62 63 64 66 71 74 73 74 79 84 82 84 88 91 90 89 87 88
58 60 339 32 45 297 55 47 81 126 154 160 234 292 321 147 130 118 107 99 91 83 78 75 73 71 71 69 68 69 71 75 75 76 80 82 81 82 82 82 84 86 85 83
17 94 26 24 19 60 83 72 99 130 249 162 147 34 44 105 113 116 112 104 94 88 83 81 80 78 75 75 75 75 75 77 78 80 80 80 80 80 80 77 75 76 74 71
44 71 44 1 359 15 36 15 27 128 111 93 118 104 85 101 102 106 108 105 100 96 91 86 82 83 82 80 79 79 78 78 79 81 81 78 77 77 75 73 70 69 71 71
85 68 104 130 257 355 22 26 31 70 89 86 100 124 125 116 112 109 105 103 98 96 96 95 89 82 81 82 83 84 82 82 83 81 80 78 74 75 75 72 69 71 75 78
77 74 65 81 71 73 53 37 45 57 71 105 103 104 117 119 119 118 117 116 112 107 101 97 94 90 87 84 84 86 85 82 83 83 81 78 75 72 70 68 67 69 75 83
65 86 70 65 84 78 54 34 44 56 62 97 98 81 98 107 110 117 120 119 113 109 105 100 97 96 94 93 92 89 88 88 88 90 89 86 84 80 77 77 76 74 75 80
56 89 80 73 123 85 44 13 44 67 53 89 94 111 129 113 107 116 121 118 115 113 109 104 100 96 94 92 93 91 89 89 91 95 96 93 92 91 92 93 84 78 76 82
112 86 95 90 70 75 130 6 85 85 67 84 102 112 106 100 87 77 92 111 114 113 110 107 103 99 94 92 90 92 90 90 92 93 94 95 98 97 92 87 83 78 74 82
109 108 85 87 90 107 139 264 157 110 80 101 121 123 116 112 90 67 68 93 102 103 104 102 100 98 92 88 90 92 90 93 94 95 94 96 103 101 93 89 87 62 55 23
51 68 85 86 97 114 301 312 150 112 100 155 142 146 149 137 114 121 104 100 99 97 97 98 94 92 89 84 87 90 91 91 95 99 99 101 108 111 110 117 124 321 359 308
30 36 57 78 92 89 304 321 103 131 179 168 147 151 153 116 125 124 115 104 104 104 103 99 93 89 89 90 89 88 89 97 107 107 104 103 111 127 136 119 22 352 357 0
106 84 60 82 98 251 307 38 108 158 132 118 114 117 112 110 112 114 114 113 112 109 105 102 98 93 87 92 92 92 103 120 115 111 102 98 136 175 148 139 347 10 32 32
101 157 146 137 178 222 39 102 125 124 117 118 118 123 125 121 123 121 119 119 118 117 113 106 105 96 86 94 104 113 143 137 120 115 110 120 147 187 163 153 72 48 61 68
75 107 94 87 105 113 98 100 105 113 117 123 128 129 128 124 126 124 124 122 119 115 114 110 106 104 106 119 124 143 152 134 123 126 197 243 265 290 350 46 127 127 116 99
179 100 95 104 140 108 95 118 120 111 115 120 123 123 126 126 127 127 126 126 125 121 119 118 122 129 139 138 136 154 143 128 128 189 269 276 259 237 170 79 90 143 169 164
309 142 144 181 187 152 160 144 126 124 129 133 128 118 120 125 126 125 125 127 128 128 125 122 129 138 146 140 146 169 163 149 148 224 280 270 255 224 162 120 70 48 89 121